Tracking 29782 objects as of 13-Oct-2024
HD Live streaming from Space Station
objects crossing your sky now

SL-12 R/B(2)

Track SL-12 R/B(2) now!


NORAD ID: 22984
Int'l Code: 1994-008D
Perigee: 36,355.6 km
Apogee: 36,549.6 km
Inclination: 15.3 °
Period: 1,469.9 minutes
Semi major axis: 42823 km
RCS: 2.2403 m2 (large)
Launch date: February 5, 1994
Source: Commonwealth of Independent States (former USSR) (CIS)
Launch site: TYURATAM MISSILE AND SPACE COMPLEX (TTMTR)

Note: This is a ROCKET BODY
Your satellite tracking list
Your tracking list is empty




NASA's NSSDC Master Catalog

Two Line Element Set (TLE):
1 22984U 94008D   24286.02202208 -.00000182  00000-0  00000-0 0  9996
2 22984  15.2687 355.6667 0022655  53.5426 315.8276  0.97966609109621
Source of the keplerian elements: AFSPC